Year,Month,Day,Hour,Minute,Value (Times are PST for temperature in C)
2010,10,14,00,00,7.40
2010,10,14,00,01,7.40
2010,10,14,00,02,7.40
2010,10,14,00,03,7.30
2010,10,14,00,04,7.30
2010,10,14,00,05,7.30
2010,10,14,00,06,7.30
2010,10,14,00,07,7.30
2010,10,14,00,08,7.30
2010,10,14,00,09,7.30
2010,10,14,00,10,7.30
2010,10,14,00,11,7.30
2010,10,14,00,12,7.30
2010,10,14,00,13,7.30
2010,10,14,00,14,7.30
2010,10,14,00,15,7.30
2010,10,14,00,16,7.30
2010,10,14,00,17,7.30
2010,10,14,00,18,7.30
2010,10,14,00,19,7.30
2010,10,14,00,20,7.20
2010,10,14,00,21,7.20
2010,10,14,00,22,7.20
2010,10,14,00,23,7.20
2010,10,14,00,24,7.20
2010,10,14,00,25,7.20
2010,10,14,00,26,7.20
2010,10,14,00,27,7.20
2010,10,14,00,28,7.10
2010,10,14,00,29,7.10
2010,10,14,00,30,7.10
2010,10,14,00,31,7.10
2010,10,14,00,32,7.10
2010,10,14,00,33,7.10
2010,10,14,00,34,7.10
2010,10,14,00,35,7.10
2010,10,14,00,36,7.10
2010,10,14,00,37,7.10
2010,10,14,00,38,7.00
2010,10,14,00,39,7.00
2010,10,14,00,40,7.00
2010,10,14,00,41,7.00
2010,10,14,00,42,7.00
2010,10,14,00,43,6.90
2010,10,14,00,44,6.90
2010,10,14,00,45,6.90
2010,10,14,00,46,6.90
2010,10,14,00,47,6.90
2010,10,14,00,48,6.80
2010,10,14,00,49,6.80
2010,10,14,00,50,6.80
2010,10,14,00,51,6.80
2010,10,14,00,52,6.80
2010,10,14,00,53,6.80
2010,10,14,00,54,6.80
2010,10,14,00,55,6.80
2010,10,14,00,56,6.80
2010,10,14,00,57,6.80
2010,10,14,00,58,6.80
2010,10,14,00,59,6.80
2010,10,14,01,00,6.70
2010,10,14,01,01,6.70
2010,10,14,01,02,6.70
2010,10,14,01,03,6.70
2010,10,14,01,04,6.70
2010,10,14,01,05,6.60
2010,10,14,01,06,6.60
2010,10,14,01,07,6.60
2010,10,14,01,08,6.60
2010,10,14,01,09,6.60
2010,10,14,01,10,6.60
2010,10,14,01,11,6.60
2010,10,14,01,12,6.60
2010,10,14,01,13,6.60
2010,10,14,01,14,6.60
2010,10,14,01,15,6.60
2010,10,14,01,16,6.60
2010,10,14,01,17,6.60
2010,10,14,01,18,6.60
2010,10,14,01,19,6.60
2010,10,14,01,20,6.60
2010,10,14,01,21,6.60
2010,10,14,01,22,6.60
2010,10,14,01,23,6.70
2010,10,14,01,24,6.70
2010,10,14,01,25,6.70
2010,10,14,01,26,6.70
2010,10,14,01,27,6.70
2010,10,14,01,28,6.70
2010,10,14,01,29,6.70
2010,10,14,01,30,6.70
2010,10,14,01,31,6.70
2010,10,14,01,32,6.70
2010,10,14,01,33,6.70
2010,10,14,01,34,6.70
2010,10,14,01,35,6.70
2010,10,14,01,36,6.70
2010,10,14,01,37,6.70
2010,10,14,01,38,6.70
2010,10,14,01,39,6.70
2010,10,14,01,40,6.70
2010,10,14,01,41,6.70
2010,10,14,01,42,6.70
2010,10,14,01,43,6.70
2010,10,14,01,44,6.70
2010,10,14,01,45,6.70
2010,10,14,01,46,6.60
2010,10,14,01,47,6.60
2010,10,14,01,48,6.60
2010,10,14,01,49,6.60
2010,10,14,01,50,6.60
2010,10,14,01,51,6.60
2010,10,14,01,52,6.60
2010,10,14,01,53,6.60
2010,10,14,01,54,6.60
2010,10,14,01,55,6.60
2010,10,14,01,56,6.70
2010,10,14,01,57,6.80
2010,10,14,01,58,6.80
2010,10,14,01,59,6.80
2010,10,14,02,00,6.90
2010,10,14,02,01,6.90
2010,10,14,02,02,6.90
2010,10,14,02,03,7.00
2010,10,14,02,04,7.00
2010,10,14,02,05,7.00
2010,10,14,02,06,7.10
2010,10,14,02,07,7.10
2010,10,14,02,08,7.10
2010,10,14,02,09,7.20
2010,10,14,02,10,7.20
2010,10,14,02,11,7.20
2010,10,14,02,12,7.30
2010,10,14,02,13,7.30
2010,10,14,02,14,7.40
2010,10,14,02,15,7.40
2010,10,14,02,16,7.50
2010,10,14,02,17,7.50
2010,10,14,02,18,7.60
2010,10,14,02,19,7.60
2010,10,14,02,20,7.70
2010,10,14,02,21,7.70
2010,10,14,02,22,7.70
2010,10,14,02,23,7.70
2010,10,14,02,24,7.70
2010,10,14,02,25,7.70
2010,10,14,02,26,7.70
2010,10,14,02,27,7.70
2010,10,14,02,28,7.60
2010,10,14,02,29,7.60
2010,10,14,02,30,7.60
2010,10,14,02,31,7.50
2010,10,14,02,32,7.50
2010,10,14,02,33,7.40
2010,10,14,02,34,7.40
2010,10,14,02,35,7.40
2010,10,14,02,36,7.30
2010,10,14,02,37,7.30
2010,10,14,02,38,7.30
2010,10,14,02,39,7.30
2010,10,14,02,40,7.30
2010,10,14,02,41,7.20
2010,10,14,02,42,7.20
2010,10,14,02,43,7.20
2010,10,14,02,44,7.20
2010,10,14,02,45,7.10
2010,10,14,02,46,7.10
2010,10,14,02,47,7.10
2010,10,14,02,48,7.10
2010,10,14,02,49,7.00
2010,10,14,02,50,7.00
2010,10,14,02,51,7.00
2010,10,14,02,52,7.00
2010,10,14,02,53,6.90
2010,10,14,02,54,6.90
2010,10,14,02,55,6.90
2010,10,14,02,56,6.90
2010,10,14,02,57,6.90
2010,10,14,02,58,6.90
2010,10,14,02,59,6.90
2010,10,14,03,00,6.80
2010,10,14,03,01,6.80
2010,10,14,03,02,6.80
2010,10,14,03,03,6.80
2010,10,14,03,04,6.80
2010,10,14,03,05,6.80
2010,10,14,03,06,6.70
2010,10,14,03,07,6.70
2010,10,14,03,08,6.70
2010,10,14,03,09,6.70
2010,10,14,03,10,6.70
2010,10,14,03,11,6.70
2010,10,14,03,12,6.70
2010,10,14,03,13,6.80
2010,10,14,03,14,6.80
2010,10,14,03,15,6.80
2010,10,14,03,16,6.80
2010,10,14,03,17,6.80
2010,10,14,03,18,6.80
2010,10,14,03,19,6.80
2010,10,14,03,20,6.90
2010,10,14,03,21,6.90
2010,10,14,03,22,6.90
2010,10,14,03,23,6.90
2010,10,14,03,24,6.90
2010,10,14,03,25,6.90
2010,10,14,03,26,6.90
2010,10,14,03,27,7.00
2010,10,14,03,28,7.00
2010,10,14,03,29,7.00
2010,10,14,03,30,7.00
2010,10,14,03,31,7.00
2010,10,14,03,32,7.10
2010,10,14,03,33,7.10
2010,10,14,03,34,7.10
2010,10,14,03,35,7.10
2010,10,14,03,36,7.10
2010,10,14,03,37,7.10
2010,10,14,03,38,7.20
2010,10,14,03,39,7.20
2010,10,14,03,40,7.20
2010,10,14,03,41,7.30
2010,10,14,03,42,7.30
2010,10,14,03,43,7.30
2010,10,14,03,44,7.30
2010,10,14,03,45,7.30
2010,10,14,03,46,7.30
2010,10,14,03,47,7.30
2010,10,14,03,48,7.30
2010,10,14,03,49,7.30
2010,10,14,03,50,7.30
2010,10,14,03,51,7.30
2010,10,14,03,52,7.30
2010,10,14,03,53,7.30
2010,10,14,03,54,7.30
2010,10,14,03,55,7.30
2010,10,14,03,56,7.30
2010,10,14,03,57,7.30
2010,10,14,03,58,7.30
2010,10,14,03,59,7.30
2010,10,14,04,00,7.30
2010,10,14,04,01,7.30
2010,10,14,04,02,7.30
2010,10,14,04,03,7.30
2010,10,14,04,04,7.30
2010,10,14,04,05,7.30
2010,10,14,04,06,7.30
2010,10,14,04,07,7.30
2010,10,14,04,08,7.30
2010,10,14,04,09,7.30
2010,10,14,04,10,7.30
2010,10,14,04,11,7.30
2010,10,14,04,12,7.30
2010,10,14,04,13,7.30
2010,10,14,04,14,7.20
2010,10,14,04,15,7.20
2010,10,14,04,16,7.20
2010,10,14,04,17,7.20
2010,10,14,04,18,7.20
2010,10,14,04,19,7.20
2010,10,14,04,20,7.20
2010,10,14,04,21,7.20
2010,10,14,04,22,7.10
2010,10,14,04,23,7.10
2010,10,14,04,24,7.20
2010,10,14,04,25,7.20
2010,10,14,04,26,7.30
2010,10,14,04,27,7.30
2010,10,14,04,28,7.40
2010,10,14,04,29,7.40
2010,10,14,04,30,7.40
2010,10,14,04,31,7.40
2010,10,14,04,32,7.40
2010,10,14,04,33,7.40
2010,10,14,04,34,7.40
2010,10,14,04,35,7.40
2010,10,14,04,36,7.30
2010,10,14,04,37,7.30
2010,10,14,04,38,7.30
2010,10,14,04,39,7.20
2010,10,14,04,40,7.20
2010,10,14,04,41,7.20
2010,10,14,04,42,7.20
2010,10,14,04,43,7.20
2010,10,14,04,44,7.20
2010,10,14,04,45,7.10
2010,10,14,04,46,7.10
2010,10,14,04,47,7.10
2010,10,14,04,48,7.00
2010,10,14,04,49,7.00
2010,10,14,04,50,6.90
2010,10,14,04,51,6.90
2010,10,14,04,52,6.90
2010,10,14,04,53,6.90
2010,10,14,04,54,6.80
2010,10,14,04,55,6.80
2010,10,14,04,56,6.80
2010,10,14,04,57,6.80
2010,10,14,04,58,6.80
2010,10,14,04,59,6.80
2010,10,14,05,00,6.80
2010,10,14,05,01,6.90
2010,10,14,05,02,6.90
2010,10,14,05,03,6.90
2010,10,14,05,04,6.90
2010,10,14,05,05,6.90
2010,10,14,05,06,6.90
2010,10,14,05,07,6.90
2010,10,14,05,08,7.00
2010,10,14,05,09,7.00
2010,10,14,05,10,7.00
2010,10,14,05,11,7.00
2010,10,14,05,12,6.90
2010,10,14,05,13,6.90
2010,10,14,05,14,6.90
2010,10,14,05,15,6.90
2010,10,14,05,16,6.90
2010,10,14,05,17,6.90
2010,10,14,05,18,6.90
2010,10,14,05,19,6.90
2010,10,14,05,20,6.80
2010,10,14,05,21,6.80
2010,10,14,05,22,6.80
2010,10,14,05,23,6.90
2010,10,14,05,24,6.90
2010,10,14,05,25,6.90
2010,10,14,05,26,6.90
2010,10,14,05,27,6.90
2010,10,14,05,28,6.90
2010,10,14,05,29,6.90
2010,10,14,05,30,6.90
2010,10,14,05,31,6.90
2010,10,14,05,32,6.90
2010,10,14,05,33,6.90
2010,10,14,05,34,6.90
2010,10,14,05,35,6.90
2010,10,14,05,36,6.90
2010,10,14,05,37,6.90
2010,10,14,05,38,6.90
2010,10,14,05,39,6.90
2010,10,14,05,40,6.90
2010,10,14,05,41,6.90
2010,10,14,05,42,6.90
2010,10,14,05,43,6.90
2010,10,14,05,44,6.90
2010,10,14,05,45,6.90
2010,10,14,05,46,6.90
2010,10,14,05,47,6.90
2010,10,14,05,48,6.80
2010,10,14,05,49,6.80
2010,10,14,05,50,6.80
2010,10,14,05,51,6.80
2010,10,14,05,52,6.80
2010,10,14,05,53,6.80
2010,10,14,05,54,6.80
2010,10,14,05,55,6.80
2010,10,14,05,56,6.70
2010,10,14,05,57,6.70
2010,10,14,05,58,6.70
2010,10,14,05,59,6.70
2010,10,14,06,00,6.70
2010,10,14,06,01,6.70
2010,10,14,06,02,6.70
2010,10,14,06,03,6.60
2010,10,14,06,04,6.60
2010,10,14,06,05,6.60
2010,10,14,06,06,6.60
2010,10,14,06,07,6.60
2010,10,14,06,08,6.60
2010,10,14,06,09,6.50
2010,10,14,06,10,6.50
2010,10,14,06,11,6.50
2010,10,14,06,12,6.50
2010,10,14,06,13,6.50
2010,10,14,06,14,6.50
2010,10,14,06,15,6.60
2010,10,14,06,16,6.60
2010,10,14,06,17,6.60
2010,10,14,06,18,6.60
2010,10,14,06,19,6.70
2010,10,14,06,20,6.70
2010,10,14,06,21,6.70
2010,10,14,06,22,6.80
2010,10,14,06,23,6.80
2010,10,14,06,24,6.80
2010,10,14,06,25,6.80
2010,10,14,06,26,6.80
2010,10,14,06,27,6.80
2010,10,14,06,28,6.80
2010,10,14,06,29,6.90
2010,10,14,06,30,6.90
2010,10,14,06,31,6.90
2010,10,14,06,32,6.90
2010,10,14,06,33,6.90
2010,10,14,06,34,6.90
2010,10,14,06,35,6.90
2010,10,14,06,36,6.90
2010,10,14,06,37,6.90
2010,10,14,06,38,6.90
2010,10,14,06,39,6.90
2010,10,14,06,40,7.00
2010,10,14,06,41,7.00
2010,10,14,06,42,7.10
2010,10,14,06,43,7.10
2010,10,14,06,44,7.10
2010,10,14,06,45,7.20
2010,10,14,06,46,7.20
2010,10,14,06,47,7.20
2010,10,14,06,48,7.30
2010,10,14,06,49,7.30
2010,10,14,06,50,7.30
2010,10,14,06,51,7.40
2010,10,14,06,52,7.40
2010,10,14,06,53,7.40
2010,10,14,06,54,7.40
2010,10,14,06,55,7.40
2010,10,14,06,56,7.40
2010,10,14,06,57,7.50
2010,10,14,06,58,7.50
2010,10,14,06,59,7.60
2010,10,14,07,00,7.60
2010,10,14,07,01,7.60
2010,10,14,07,02,7.70
2010,10,14,07,03,7.70
2010,10,14,07,04,7.70
2010,10,14,07,05,7.80
2010,10,14,07,06,7.80
2010,10,14,07,07,7.80
2010,10,14,07,08,7.80
2010,10,14,07,09,7.90
2010,10,14,07,10,7.90
2010,10,14,07,11,7.90
2010,10,14,07,12,7.90
2010,10,14,07,13,7.90
2010,10,14,07,14,8.00
2010,10,14,07,15,8.00
2010,10,14,07,16,8.00
2010,10,14,07,17,8.00
2010,10,14,07,18,8.10
2010,10,14,07,19,8.10
2010,10,14,07,20,8.10
2010,10,14,07,21,8.10
2010,10,14,07,22,8.10
2010,10,14,07,23,8.10
2010,10,14,07,24,8.10
2010,10,14,07,25,8.20
2010,10,14,07,26,8.20
2010,10,14,07,27,8.20
2010,10,14,07,28,8.20
2010,10,14,07,29,8.20
2010,10,14,07,30,8.20
2010,10,14,07,31,8.20
2010,10,14,07,32,8.30
2010,10,14,07,33,8.30
2010,10,14,07,34,8.30
2010,10,14,07,35,8.30
2010,10,14,07,36,8.30
2010,10,14,07,37,8.30
2010,10,14,07,38,8.30
2010,10,14,07,39,8.30
2010,10,14,07,40,8.30
2010,10,14,07,41,8.30
2010,10,14,07,42,8.30
2010,10,14,07,43,8.30
2010,10,14,07,44,8.30
2010,10,14,07,45,8.40
2010,10,14,07,46,8.40
2010,10,14,07,47,8.40
2010,10,14,07,48,8.40
2010,10,14,07,49,8.40
2010,10,14,07,50,8.40
2010,10,14,07,51,8.50
2010,10,14,07,52,8.50
2010,10,14,07,53,8.50
2010,10,14,07,54,8.50
2010,10,14,07,55,8.60
2010,10,14,07,56,8.60
2010,10,14,07,57,8.60
2010,10,14,07,58,8.60
2010,10,14,07,59,8.60
2010,10,14,08,00,8.60
2010,10,14,08,01,8.60
2010,10,14,08,02,8.70
2010,10,14,08,03,8.70
2010,10,14,08,04,8.70
2010,10,14,08,05,8.70
2010,10,14,08,06,8.70
2010,10,14,08,07,8.70
2010,10,14,08,08,8.80
2010,10,14,08,09,8.80
2010,10,14,08,10,8.80
2010,10,14,08,11,8.90
2010,10,14,08,12,8.90
2010,10,14,08,13,9.00
2010,10,14,08,14,9.00
2010,10,14,08,15,9.10
2010,10,14,08,16,9.10
2010,10,14,08,17,9.20
2010,10,14,08,18,9.30
2010,10,14,08,19,9.30
2010,10,14,08,20,9.40
2010,10,14,08,21,9.50
2010,10,14,08,22,9.60
2010,10,14,08,23,9.70
2010,10,14,08,24,9.80
2010,10,14,08,25,9.80
2010,10,14,08,26,9.90
2010,10,14,08,27,10.00
2010,10,14,08,28,10.10
2010,10,14,08,29,10.10
2010,10,14,08,30,10.20
2010,10,14,08,31,10.30
2010,10,14,08,32,10.30
2010,10,14,08,33,10.30
2010,10,14,08,34,10.40
2010,10,14,08,35,10.40
2010,10,14,08,36,10.40
2010,10,14,08,37,10.50
2010,10,14,08,38,10.50
2010,10,14,08,39,10.60
2010,10,14,08,40,10.60
2010,10,14,08,41,10.60
2010,10,14,08,42,10.60
2010,10,14,08,43,10.60
2010,10,14,08,44,10.70
2010,10,14,08,45,10.70
2010,10,14,08,46,10.70
2010,10,14,08,47,10.70
2010,10,14,08,48,10.70
2010,10,14,08,49,10.80
2010,10,14,08,50,10.80
2010,10,14,08,51,10.80
2010,10,14,08,52,10.80
2010,10,14,08,53,10.80
2010,10,14,08,54,10.80
2010,10,14,08,55,10.80
2010,10,14,08,56,10.80
2010,10,14,08,57,10.80
2010,10,14,08,58,10.80
2010,10,14,08,59,10.90
2010,10,14,09,00,10.90
2010,10,14,09,01,10.90
2010,10,14,09,02,10.90
2010,10,14,09,03,10.90
2010,10,14,09,04,10.90
2010,10,14,09,05,10.90
2010,10,14,09,06,10.90
2010,10,14,09,07,10.90
2010,10,14,09,08,10.90
2010,10,14,09,09,10.90
2010,10,14,09,10,10.90
2010,10,14,09,11,10.90
2010,10,14,09,12,10.90
2010,10,14,09,13,10.90
2010,10,14,09,14,10.80
2010,10,14,09,15,10.80
2010,10,14,09,16,10.80
2010,10,14,09,17,10.80
2010,10,14,09,18,10.80
2010,10,14,09,19,10.70
2010,10,14,09,20,10.70
2010,10,14,09,21,10.70
2010,10,14,09,22,10.70
2010,10,14,09,23,10.70
2010,10,14,09,24,10.60
2010,10,14,09,25,10.60
2010,10,14,09,26,10.60
2010,10,14,09,27,10.60
2010,10,14,09,28,10.60
2010,10,14,09,29,10.60
2010,10,14,09,30,10.50
2010,10,14,09,31,10.50
2010,10,14,09,32,10.50
2010,10,14,09,33,10.50
2010,10,14,09,34,10.50
2010,10,14,09,35,10.50
2010,10,14,09,36,10.50
2010,10,14,09,37,10.50
2010,10,14,09,38,10.50
2010,10,14,09,39,10.50
2010,10,14,09,40,10.50
2010,10,14,09,41,10.50
2010,10,14,09,42,10.50
2010,10,14,09,43,10.50
2010,10,14,09,44,10.60
2010,10,14,09,45,10.60
2010,10,14,09,46,10.60
2010,10,14,09,47,10.60
2010,10,14,09,48,10.60
2010,10,14,09,49,10.70
2010,10,14,09,50,10.70
2010,10,14,09,51,10.70
2010,10,14,09,52,10.70
2010,10,14,09,53,10.70
2010,10,14,09,54,10.80
2010,10,14,09,55,10.80
2010,10,14,09,56,10.80
2010,10,14,09,57,10.80
2010,10,14,09,58,10.80
2010,10,14,09,59,10.90
2010,10,14,10,00,10.90
2010,10,14,10,01,10.90
2010,10,14,10,02,10.90
2010,10,14,10,03,11.00
2010,10,14,10,04,11.00
2010,10,14,10,05,11.00
2010,10,14,10,06,11.00
2010,10,14,10,07,11.10
2010,10,14,10,08,11.10
2010,10,14,10,09,11.10
2010,10,14,10,10,11.10
2010,10,14,10,11,11.20
2010,10,14,10,12,11.20
2010,10,14,10,13,11.20
2010,10,14,10,14,11.20
2010,10,14,10,15,11.20
2010,10,14,10,16,11.20
2010,10,14,10,17,11.20
2010,10,14,10,18,11.30
2010,10,14,10,19,11.30
2010,10,14,10,20,11.30
2010,10,14,10,21,11.30
2010,10,14,10,22,11.30
2010,10,14,10,23,11.40
2010,10,14,10,24,11.40
2010,10,14,10,25,11.40
2010,10,14,10,26,11.50
2010,10,14,10,27,11.50
2010,10,14,10,28,11.60
2010,10,14,10,29,11.60
2010,10,14,10,30,11.60
2010,10,14,10,31,11.70
2010,10,14,10,32,11.70
2010,10,14,10,33,11.70
2010,10,14,10,34,11.80
2010,10,14,10,35,11.80
2010,10,14,10,36,11.80
2010,10,14,10,37,11.90
2010,10,14,10,38,11.90
2010,10,14,10,39,11.90
2010,10,14,10,40,11.90
2010,10,14,10,41,12.00
2010,10,14,10,42,12.00
2010,10,14,10,43,12.10
2010,10,14,10,44,12.10
2010,10,14,10,45,12.10
2010,10,14,10,46,12.10
2010,10,14,10,47,12.20
2010,10,14,10,48,12.20
2010,10,14,10,49,12.20
2010,10,14,10,50,12.20
2010,10,14,10,51,12.30
2010,10,14,10,52,12.30
2010,10,14,10,53,12.30
2010,10,14,10,54,12.30
2010,10,14,10,55,12.40
2010,10,14,10,56,12.40
2010,10,14,10,57,12.40
2010,10,14,10,58,12.40
2010,10,14,10,59,12.40
2010,10,14,11,00,12.40
2010,10,14,11,01,12.40
2010,10,14,11,02,12.40
2010,10,14,11,03,12.40
2010,10,14,11,04,12.40
2010,10,14,11,05,12.40
2010,10,14,11,06,12.40
2010,10,14,11,07,12.40
2010,10,14,11,08,12.40
2010,10,14,11,09,12.40
2010,10,14,11,10,12.40
2010,10,14,11,11,12.40
2010,10,14,11,12,12.40
2010,10,14,11,13,12.40
2010,10,14,11,14,12.40
2010,10,14,11,15,12.40
2010,10,14,11,16,12.50
2010,10,14,11,17,12.50
2010,10,14,11,18,12.50
2010,10,14,11,19,12.50
2010,10,14,11,20,12.50
2010,10,14,11,21,12.50
2010,10,14,11,22,12.50
2010,10,14,11,23,12.60
2010,10,14,11,24,12.60
2010,10,14,11,25,12.60
2010,10,14,11,26,12.60
2010,10,14,11,27,12.60
2010,10,14,11,28,12.60
2010,10,14,11,29,12.60
2010,10,14,11,30,12.70
2010,10,14,11,31,12.70
2010,10,14,11,32,12.70
2010,10,14,11,33,12.70
2010,10,14,11,34,12.70
2010,10,14,11,35,12.70
2010,10,14,11,36,12.70
2010,10,14,11,37,12.70
2010,10,14,11,38,12.70
2010,10,14,11,39,12.70
2010,10,14,11,40,12.70
2010,10,14,11,41,12.70
2010,10,14,11,42,12.70
2010,10,14,11,43,12.70
2010,10,14,11,44,12.70
2010,10,14,11,45,12.70
2010,10,14,11,46,12.70
2010,10,14,11,47,12.80
2010,10,14,11,48,12.80
2010,10,14,11,49,12.80
2010,10,14,11,50,12.70
2010,10,14,11,51,12.70
2010,10,14,11,52,12.80
2010,10,14,11,53,12.70
2010,10,14,11,54,12.70
2010,10,14,11,55,12.70
2010,10,14,11,56,12.70
2010,10,14,11,57,12.70
2010,10,14,11,58,12.70
2010,10,14,11,59,12.70
2010,10,14,12,00,12.70
2010,10,14,12,01,12.70
2010,10,14,12,02,12.70
2010,10,14,12,03,12.70
2010,10,14,12,04,12.70
2010,10,14,12,05,12.70
2010,10,14,12,06,12.70
2010,10,14,12,07,12.70
2010,10,14,12,08,12.70
2010,10,14,12,09,12.70
2010,10,14,12,10,12.70
2010,10,14,12,11,12.70
2010,10,14,12,12,12.70
2010,10,14,12,13,12.70
2010,10,14,12,14,12.70
2010,10,14,12,15,12.70
2010,10,14,12,16,12.70
2010,10,14,12,17,12.70
2010,10,14,12,18,12.70
2010,10,14,12,19,12.70
2010,10,14,12,20,12.70
2010,10,14,12,21,12.70
2010,10,14,12,22,12.70
2010,10,14,12,23,12.70
2010,10,14,12,24,12.70
2010,10,14,12,25,12.70
2010,10,14,12,26,12.70
2010,10,14,12,27,12.70
2010,10,14,12,28,12.70
2010,10,14,12,29,12.70
2010,10,14,12,30,12.80
2010,10,14,12,31,12.80
2010,10,14,12,32,12.80
2010,10,14,12,33,12.80
2010,10,14,12,34,12.80
2010,10,14,12,35,12.80
2010,10,14,12,36,12.80
2010,10,14,12,37,12.80
2010,10,14,12,38,12.80
2010,10,14,12,39,12.80
2010,10,14,12,40,12.90
2010,10,14,12,41,12.90
2010,10,14,12,42,12.80
2010,10,14,12,43,12.90
2010,10,14,12,44,12.90
2010,10,14,12,45,12.80
2010,10,14,12,46,12.80
2010,10,14,12,47,12.80
2010,10,14,12,48,12.80
2010,10,14,12,49,12.80
2010,10,14,12,50,12.80
2010,10,14,12,51,12.80
2010,10,14,12,52,12.80
2010,10,14,12,53,12.80
2010,10,14,12,54,12.80
2010,10,14,12,55,12.80
2010,10,14,12,56,12.80
2010,10,14,12,57,12.80
2010,10,14,12,58,12.90
2010,10,14,12,59,12.90
2010,10,14,13,00,12.90
2010,10,14,13,01,12.90
2010,10,14,13,02,12.90
2010,10,14,13,03,12.90
2010,10,14,13,04,12.80
2010,10,14,13,05,12.80
2010,10,14,13,06,12.80
2010,10,14,13,07,12.80
2010,10,14,13,08,12.80
2010,10,14,13,09,12.80
2010,10,14,13,10,12.80
2010,10,14,13,11,12.80
2010,10,14,13,12,12.80
2010,10,14,13,13,12.80
2010,10,14,13,14,12.80
2010,10,14,13,15,12.80
2010,10,14,13,16,12.80
2010,10,14,13,17,12.80
2010,10,14,13,18,12.80
2010,10,14,13,19,12.80
2010,10,14,13,20,12.80
2010,10,14,13,21,12.80
2010,10,14,13,22,12.80
2010,10,14,13,23,12.80
2010,10,14,13,24,12.80
2010,10,14,13,25,12.80
2010,10,14,13,26,12.80
2010,10,14,13,27,12.80
2010,10,14,13,28,12.80
2010,10,14,13,29,12.80
2010,10,14,13,30,12.90
2010,10,14,13,31,12.90
2010,10,14,13,32,12.90
2010,10,14,13,33,12.90
2010,10,14,13,34,13.00
2010,10,14,13,35,13.00
2010,10,14,13,36,13.00
2010,10,14,13,37,13.10
2010,10,14,13,38,13.10
2010,10,14,13,39,13.10
2010,10,14,13,40,13.10
2010,10,14,13,41,13.20
2010,10,14,13,42,13.20
2010,10,14,13,43,13.20
2010,10,14,13,44,13.20
2010,10,14,13,45,13.20
2010,10,14,13,46,13.20
2010,10,14,13,47,13.20
2010,10,14,13,48,13.20
2010,10,14,13,49,13.20
2010,10,14,13,50,13.20
2010,10,14,13,51,13.10
2010,10,14,13,52,13.10
2010,10,14,13,53,13.10
2010,10,14,13,54,13.20
2010,10,14,13,55,13.10
2010,10,14,13,56,13.20
2010,10,14,13,57,13.20
2010,10,14,13,58,13.20
2010,10,14,13,59,13.20
2010,10,14,14,00,13.20
2010,10,14,14,01,13.20
2010,10,14,14,02,13.10
2010,10,14,14,03,13.10
2010,10,14,14,04,13.10
2010,10,14,14,05,13.10
2010,10,14,14,06,13.10
2010,10,14,14,07,13.10
2010,10,14,14,08,13.10
2010,10,14,14,09,13.10
2010,10,14,14,10,13.10
2010,10,14,14,11,13.00
2010,10,14,14,12,13.00
2010,10,14,14,13,12.90
2010,10,14,14,14,12.90
2010,10,14,14,15,12.90
2010,10,14,14,16,12.90
2010,10,14,14,17,12.80
2010,10,14,14,18,12.80
2010,10,14,14,19,12.80
2010,10,14,14,20,12.80
2010,10,14,14,21,12.80
2010,10,14,14,22,12.80
2010,10,14,14,23,12.70
2010,10,14,14,24,12.70
2010,10,14,14,25,12.70
2010,10,14,14,26,12.70
2010,10,14,14,27,12.70
2010,10,14,14,28,12.60
2010,10,14,14,29,12.60
2010,10,14,14,30,12.60
2010,10,14,14,31,12.60
2010,10,14,14,32,12.60
2010,10,14,14,33,12.60
2010,10,14,14,34,12.60
2010,10,14,14,35,12.60
2010,10,14,14,36,12.60
2010,10,14,14,37,12.60
2010,10,14,14,38,12.60
2010,10,14,14,39,12.50
2010,10,14,14,40,12.50
2010,10,14,14,41,12.50
2010,10,14,14,42,12.50
2010,10,14,14,43,12.50
2010,10,14,14,44,12.50
2010,10,14,14,45,12.50
2010,10,14,14,46,12.50
2010,10,14,14,47,12.50
2010,10,14,14,48,12.50
2010,10,14,14,49,12.60
2010,10,14,14,50,12.60
2010,10,14,14,51,12.60
2010,10,14,14,52,12.60
2010,10,14,14,53,12.60
2010,10,14,14,54,12.60
2010,10,14,14,55,12.60
2010,10,14,14,56,12.60
2010,10,14,14,57,12.60
2010,10,14,14,58,12.50
2010,10,14,14,59,12.60
2010,10,14,15,00,12.60
2010,10,14,15,01,12.60
2010,10,14,15,02,12.60
2010,10,14,15,03,12.60
2010,10,14,15,04,12.50
2010,10,14,15,05,12.50
2010,10,14,15,06,12.50
2010,10,14,15,07,12.50
2010,10,14,15,08,12.50
2010,10,14,15,09,12.60
2010,10,14,15,10,12.60
2010,10,14,15,11,12.60
2010,10,14,15,12,12.60
2010,10,14,15,13,12.60
2010,10,14,15,14,12.60
2010,10,14,15,15,12.60
2010,10,14,15,16,12.60
2010,10,14,15,17,12.60
2010,10,14,15,18,12.60
2010,10,14,15,19,12.60
2010,10,14,15,20,12.60
2010,10,14,15,21,12.60
2010,10,14,15,22,12.60
2010,10,14,15,23,12.60
2010,10,14,15,24,12.60
2010,10,14,15,25,12.60
2010,10,14,15,26,12.60
2010,10,14,15,27,12.60
2010,10,14,15,28,12.60
2010,10,14,15,29,12.60
2010,10,14,15,30,12.60
2010,10,14,15,31,12.60
2010,10,14,15,32,12.60
2010,10,14,15,33,12.60
2010,10,14,15,34,12.70
2010,10,14,15,35,12.70
2010,10,14,15,36,12.70
2010,10,14,15,37,12.70
2010,10,14,15,38,12.70
2010,10,14,15,39,12.70
2010,10,14,15,40,12.70
2010,10,14,15,41,12.70
2010,10,14,15,42,12.70
2010,10,14,15,43,12.70
2010,10,14,15,44,12.70
2010,10,14,15,45,12.70
2010,10,14,15,46,12.70
2010,10,14,15,47,12.70
2010,10,14,15,48,12.70
2010,10,14,15,49,12.70
2010,10,14,15,50,12.80
2010,10,14,15,51,12.80
2010,10,14,15,52,12.80
2010,10,14,15,53,12.80
2010,10,14,15,54,12.80
2010,10,14,15,55,12.90
2010,10,14,15,56,12.90
2010,10,14,15,57,12.90
2010,10,14,15,58,12.90
2010,10,14,15,59,13.00
2010,10,14,16,00,13.00
2010,10,14,16,01,13.10
2010,10,14,16,02,13.10
2010,10,14,16,03,13.20
2010,10,14,16,04,13.20
2010,10,14,16,05,13.30
2010,10,14,16,06,13.30
2010,10,14,16,07,13.40
2010,10,14,16,08,13.40
2010,10,14,16,09,13.40
2010,10,14,16,10,13.40
2010,10,14,16,11,13.40
2010,10,14,16,12,13.40
2010,10,14,16,13,13.40
2010,10,14,16,14,13.40
2010,10,14,16,15,13.40
2010,10,14,16,16,13.40
2010,10,14,16,17,13.30
2010,10,14,16,18,13.30
2010,10,14,16,19,13.30
2010,10,14,16,20,13.30
2010,10,14,16,21,13.20
2010,10,14,16,22,13.20
2010,10,14,16,23,13.20
2010,10,14,16,24,13.10
2010,10,14,16,25,13.10
2010,10,14,16,26,13.10
2010,10,14,16,27,13.00
2010,10,14,16,28,13.00
2010,10,14,16,29,13.00
2010,10,14,16,30,12.90
2010,10,14,16,31,12.90
2010,10,14,16,32,12.90
2010,10,14,16,33,12.90
2010,10,14,16,34,12.90
2010,10,14,16,35,12.90
2010,10,14,16,36,12.90
2010,10,14,16,37,12.90
2010,10,14,16,38,12.90
2010,10,14,16,39,12.80
2010,10,14,16,40,12.80
2010,10,14,16,41,12.80
2010,10,14,16,42,12.80
2010,10,14,16,43,12.80
2010,10,14,16,44,12.80
2010,10,14,16,45,12.80
2010,10,14,16,46,12.80
2010,10,14,16,47,12.80
2010,10,14,16,48,12.70
2010,10,14,16,49,12.70
2010,10,14,16,50,12.70
2010,10,14,16,51,12.70
2010,10,14,16,52,12.70
2010,10,14,16,53,12.70
2010,10,14,16,54,12.70
2010,10,14,16,55,12.70
2010,10,14,16,56,12.70
2010,10,14,16,57,12.70
2010,10,14,16,58,12.60
2010,10,14,16,59,12.70
2010,10,14,17,00,12.60
2010,10,14,17,01,12.60
2010,10,14,17,02,12.60
2010,10,14,17,03,12.60
2010,10,14,17,04,12.60
2010,10,14,17,05,12.60
2010,10,14,17,06,12.60
2010,10,14,17,07,12.60
2010,10,14,17,08,12.60
2010,10,14,17,09,12.60
2010,10,14,17,10,12.60
2010,10,14,17,11,12.60
2010,10,14,17,12,12.60
2010,10,14,17,13,12.60
2010,10,14,17,14,12.60
2010,10,14,17,15,12.60
2010,10,14,17,16,12.60
2010,10,14,17,17,12.50
2010,10,14,17,18,12.50
2010,10,14,17,19,12.50
2010,10,14,17,20,12.50
2010,10,14,17,21,12.50
2010,10,14,17,22,12.50
2010,10,14,17,23,12.50
2010,10,14,17,24,12.50
2010,10,14,17,25,12.50
2010,10,14,17,26,12.50
2010,10,14,17,27,12.40
2010,10,14,17,28,12.40
2010,10,14,17,29,12.40
2010,10,14,17,30,12.40
2010,10,14,17,31,12.40
2010,10,14,17,32,12.40
2010,10,14,17,33,12.40
2010,10,14,17,34,12.40
2010,10,14,17,35,12.40
2010,10,14,17,36,12.40
2010,10,14,17,37,12.40
2010,10,14,17,38,12.40
2010,10,14,17,39,12.40
2010,10,14,17,40,12.30
2010,10,14,17,41,12.30